Weather in Taptugary

Russia / Zabaykalsky Krai     53°41′01″N   120°03′40″E
temp.,
°C
wind,
m/s
gust,
m/s
humid.,
%
clouds,
%
prec.,
mm/h
press.,
hPa
HPBL,
m
4 august, wed
wed400:00+14nnw21959 1.0 100413
03:00+14nne119777 1.3 100417
06:00+13n219897 0.8 100432
09:00+16n1195100 1.1 1003161
12:00+20nne238073 0.5 1002710
15:00+20ne2390100 5.3 1000201
18:00+16nnw2397100 6.9 100184
21:00+15nnw2399100 14.2 100285
5 august, thu
thu500:00+14nnw2299100 4.7 100061
03:00+14nw1299100 7.4 100064
06:00+14n1299100 2.8 99994
09:00+15nnw1198100 4.3 99969
12:00+15wsw1196100 1.8 99980
15:00+16wnw0194100 2.3 99843
18:00+15sse0094100 0.3 99911
21:00+13nw119752 0.4 99914
6 august, fri
fri600:00+13nnw1198100 0.1 99937
03:00+13nw1198100 0.2 99931
06:00+13wnw1198100 0.1 99837
09:00+13wnw1299100 1.8 99970
12:00+15wnw249374 0.1 999360
15:00+20nnw236646 0.3 9971203
18:00+19nnw138955 1.8 998359
21:00+14n119663 2.4 100012
7 august, sat
sat700:00+12nnw119718 0.0 100111
03:00+11nnw11975 0.0 100210
06:00+11n11976 0.0 100310
09:00+16ese118616 0.0 1003347
12:00+21sse216047 0.0 10031178
15:00+23se225871 0.3 10031450
18:00+18e389035 1.1 1005318
21:00+15e3109726 1.4 1007358
8 august, sun
sun800:00+14e289970 0.0 1009306
03:00+14e4996100 0.0 1009500
06:00+14e3998100 0.1 1010618
09:00+14e41097100 0.2 1011681
12:00+15e4993100 0.0 1012660
15:00+17e4983100 0.1 1012873
18:00+18e597886 0.0 1011769
21:00+14e51297100 0.8 1013589